User: anonymous   Login
Location: Unspecified
(0.0000°N, 0.0000°E)
Time: 00:40:31
(UTC+00:00)
Language:

AMOS 4 - Orbit

View from above orbital plane
View from above orbital plane
View from above satellite
View from above satellite

Ground track
Ground track

The orbit data is extracted from the following two-line orbital elements,

1 39237U 13045A   19081.78105205 -.00000018 +00000-0 +00000-0 0  9994
2 39237 000.0302 256.9336 0002070 128.6988 140.4962 01.00272193020458
Epoch (UTC): 22 March 2019 18:44:42
Eccentricity: 0.0002070
inclination: 0.0302°
perigee height: 35777 km
apogee height: 35795 km
right ascension of ascending node: 256.9336°
argument of perigee: 128.6988°
revolutions per day: 1.00272193
mean anomaly at epoch: 140.4962°
orbit number at epoch: 2045

The dashed part of the orbit path shows where the satellite is in the earth's shadow,  

DLR